Location: Mirannes
(43.6181°N, 0.3805°E)
Time: 11:52:54
(UTC+00:00)

Daily predictions for brighter satellites

Satellite Brightness Start Highest point End
(mag) Time Altitude Azimuth Time Altitude Azimuth Time Altitude Azimuth
Cosmos 2263 Rocket 2.2 18:06:26 10° NNW 18:12:02 81° ENE 18:17:36 10° SSE
ARGOS 3.7 18:10:14 10° SE 18:15:09 37° ENE 18:20:06 10° N
Gbstr 26 Del rocket 4.0 18:12:36 10° W 18:16:40 44° NNW 18:21:35 10° NE
ATLAS CENTAUR R/B 2.7 18:18:07 10° SSE 18:20:27 16° ESE 18:22:48 10° ENE
SKYMED 2 3.8 18:16:48 10° N 18:21:10 77° WNW 18:25:29 10° SSW
SL-4 R/B 3.4 18:18:40 10° NW 18:21:31 22° N 18:24:17 10° NE
H-2A R/B 3.6 18:18:10 10° N 18:21:57 37° WNW 18:25:44 10° SW
Cosmos 1805 Rocket 4.4 18:18:55 10° SSW 18:23:12 56° W 18:27:34 10° N
Cosmos 1470 Rocket 4.3 18:19:42 10° SSE 18:23:37 31° E 18:27:33 10° NNE
Meteor 1-20 Rocket 4.1 18:18:56 10° S 18:24:18 65° E 18:29:45 10° NNE
CZ-2C R/B 3.3 18:22:59 10° NNE 18:27:54 33° E 18:32:42 10° SSE
Okean O Rocket 3.9 18:24:29 10° SSW 18:28:19 30° W 18:32:10 10° NW
Cosmos 1689 Rocket 2.6 18:26:26 10° NNE 18:29:07 35° E 18:31:48 10° SSE
Cosmos 1992 Rocket 4.3 18:27:04 10° S 18:31:59 43° ESE 18:36:56 10° NNE
PSLV R/B 3.9 18:30:28 10° NNE 18:34:32 60° ESE 18:38:32 10° S
Cosmos 1486 Rocket 4.1 18:30:58 10° NNW 18:36:12 59° ENE 18:41:26 10° SSE
SAR-Lupe-4 3.8 18:33:24 10° NNE 18:36:52 45° E 18:40:18 10° S
Cosmos 968 Rocket 3.5 18:31:45 10° NNW 18:37:01 69° ENE 18:42:16 10° SSE
IRS-1C Rocket 4.2 18:32:01 10° SSE 18:37:17 84° WSW 18:42:36 10° NNW
H-2A R/B 2.2 18:33:16 10° SSE 18:38:41 83° ENE 18:44:10 10° NNW
APEX 2.7 18:38:34 10° NNW 18:41:21 65° WSW 18:44:01 10° SSE
USA 234 3.6 18:38:17 10° ENE 18:44:33 46° SE 18:50:46 10° SSW
Cosmos 1933 Rocket 4.1 18:40:44 10° SSE 18:44:37 33° E 18:48:34 10° NNE
CSL-04 Rocket 3.8 18:40:30 10° SE 18:45:54 55° ENE 18:51:16 10° N
CSL-04 Debris 4.2 18:40:41 10° SSE 18:46:00 58° ENE 18:51:22 10° N
Cosmos 1666 Rocket 3.9 18:41:46 10° SSW 18:46:05 69° W 18:50:24 10° N
Aureole 2 Rocket 2.7 18:44:24 10° N 18:46:36 25° ENE 18:47:11 23° E
SeaSat 1 2.5 18:41:46 10° NE 18:46:38 56° ESE 18:51:28 10° SSW
Cosmos 1844 Rocket 3.3 18:42:16 10° N 18:47:23 35° NE 18:51:49 13° ESE
Cosmos 1271 Rocket 3.6 18:44:29 10° NNW 18:48:07 52° W 18:51:46 10° S
Cosmos 1862 Rocket 3.5 18:45:07 10° N 18:49:38 76° E 18:54:06 10° SSE
Cosmos 1666 3.9 18:47:39 10° SE 18:50:19 19° E 18:53:01 10° NE
Cosmos 2242 Rocket 4.4 18:46:24 10° NNE 18:50:25 31° ENE 18:54:23 10° SE
ERS-2 2.0 18:46:48 10° NNE 18:50:27 76° ESE 18:54:05 10° S
Nadezhda 3 Rocket 4.0 18:49:16 10° N 18:55:40 75° E 19:02:02 10° SSE
Cosmos 1844 4.4 18:50:39 10° N 18:55:56 35° NE 18:59:37 18° ESE
SAR-Lupe-1 4.0 18:52:30 10° NNE 18:56:07 84° ESE 18:59:42 10° SSW
Meteor 1-19 Rocket 4.3 18:50:59 10° N 18:56:59 80° E 19:02:45 10° SSE
Cosmos 1602 4.0 18:53:09 10° SSW 18:57:01 71° W 19:00:57 10° N
Cosmos 2360 Rocket 2.3 18:53:20 10° S 18:58:46 51° ESE 19:04:15 10° NE
Cosmos 2154 Rocket 3.9 18:53:14 10° S 18:59:27 84° E 19:05:41 10° N
Cosmos 2278 Rocket 4.1 18:59:19 10° NNE 19:01:15 12° NE 19:02:28 11° NE
Cosmos 1354 Rocket 4.2 18:56:58 10° N 19:02:04 49° ENE 19:06:39 12° SE
YAOGAN 1 3.2 18:57:59 10° S 19:02:15 60° W 19:06:33 10° NNW
Cosmos 1295 Rocket 4.4 18:57:46 10° S 19:04:01 77° E 19:10:14 10° N
Cosmos 1610 Rocket 4.5 18:58:00 10° S 19:04:11 90° ENE 19:10:29 10° N
Cosmos 2333 Rocket 3.1 19:01:06 10° SSE 19:05:39 25° ESE 19:08:24 18° ENE
Meteor 2-4 Rocket 3.9 18:59:54 10° N 19:05:39 56° ENE 19:11:28 10° SSE
GP-B 3.2 19:01:31 10° SSE 19:05:49 53° E 19:10:10 10° N
FALCON 9 DEB 4.2 19:04:01 10° NW 19:07:08 32° NNE 19:08:06 27° ENE
Cosmos 1500 3.0 19:05:02 10° S 19:08:44 71° E 19:12:28 10° NNE
Abrixas rocket 3.0 19:10:36 10° WNW 19:12:50 27° N 19:13:15 26° NNE
Cosmos 1503 Rocket 3.9 19:07:45 10° NNW 19:12:57 71° ENE 19:18:05 10° SSE
HJ-1C 4.1 19:11:41 10° S 19:14:55 53° W 19:18:12 10° NNW
Helios 1A Rocket 3.1 19:11:21 10° S 19:15:23 71° WSW 19:19:26 10° NNW
BREEZE-M DEB (TANK) 4.3 19:14:12 10° WSW 19:18:14 89° NNW 19:35:08 10° ENE
Ariane Rocket 3.5 19:19:27 29° ESE 19:21:10 38° ENE 19:25:51 10° N
SJ 16-02 3.6 19:23:46 10° NNE 19:24:29 12° NNE 19:24:29 12° NNE
Cosmos 44 Rocket 3.9 19:22:19 10° NW 19:27:30 62° WSW 19:32:10 12° SSE
Cosmos 2322 Rocket 2.9 19:22:35 10° SW 19:28:04 55° WNW 19:33:36 10° NNE
USA 186 4.1 19:31:18 10° N 19:31:18 10° N 19:31:19 10° N
SJ-6B 3.0 19:28:27 45° ESE 19:29:09 51° ENE 19:33:07 10° N
Okean 1-7 2.9 19:24:54 10° N 19:29:16 65° E 19:31:28 28° SSE
Meteor 1-14 Rocket 4.4 19:26:39 10° SSW 19:32:13 71° WNW 19:37:45 10° N
SL-8 Rocket 3.9 19:27:17 10° S 19:33:26 63° E 19:39:33 10° NNE
Cosmos 962 Rocket 4.5 19:28:58 10° S 19:35:10 87° W 19:41:30 10° N
COSMOS 2428 4.0 19:30:24 10° SSE 19:32:47 22° SSE 19:32:47 22° SSE
Meteor 1-11 Rocket 3.9 19:30:25 10° SSE 19:35:52 47° E 19:41:14 10° NNE
Cosmos 1869 Rocket 4.0 19:39:35 43° NE 19:39:35 43° NE 19:42:55 10° NNE
SME Rocket 4.1 19:32:05 10° NNE 19:40:09 64° E 19:45:20 10° S
CZ-4 R/B 4.4 19:40:16 10° SW 19:42:44 16° W 19:45:13 10° NW
Cosmos 2219 Rocket 2.4 19:41:16 10° S 19:46:09 46° ESE 19:46:09 46° ESE
Cosmos 2366 rocket 3.9 19:41:35 10° S 19:47:47 66° E 19:54:05 10° NNE
Cosmos 1339 Rocket 4.4 19:41:37 10° N 19:47:50 81° E 19:53:47 12° S
IRS-1A Rocket 4.1 19:46:49 35° SE 19:49:14 70° ENE 19:54:48 10° N
Meteor 1-13 Rocket 4.2 19:44:34 10° N 19:50:32 71° ENE 19:53:01 36° SSE
SL-16 R/B 4.0 19:47:18 10° WSW 19:52:16 30° NW 19:57:15 10° N
MetOp-A 4.2 19:48:04 12° S 19:53:05 76° WSW 19:58:28 10° NNW
Cosmos 2341 Rocket 4.2 19:47:08 10° SSW 19:53:25 73° W 19:59:44 10° N
Cosmos 1066 Rocket 4.2 19:51:56 10° N 19:57:35 58° ENE 19:57:56 57° E
ATLAS CENTAUR R/B 2.3 19:55:34 10° WSW 19:58:59 39° NW 19:59:41 35° NNW
SL-4 R/B 3.4 19:58:36 10° NW 20:00:36 25° NNW 20:00:36 25° NNW
Cosmos 2322 3.6 19:57:40 10° SSW 20:03:24 83° ESE 20:09:09 10° NNE
CZ-2C R/B 4.2 20:03:13 10° N 20:08:10 35° WNW 20:12:59 10° SW
Cosmos 1727 Rocket 3.8 20:04:17 10° N 20:10:28 66° E 20:10:41 65° E
Okean 3 4.5 20:08:16 10° N 20:11:01 40° N 20:11:01 40° N
Cosmos 2218 Rocket 4.1 20:07:04 10° S 20:13:28 79° W 20:19:55 10° N
ASTEX 1 3.5 20:10:23 10° N 20:15:16 74° W 20:15:59 62° SW
Cosmos 192 4.4 20:10:49 10° SSW 20:15:42 75° WNW 20:15:49 74° NW
OBJECT-B 3.6 20:20:27 16° NNW 20:20:27 16° NNW 20:21:14 10° NNW
Meteor 2-20 4.4 20:14:40 10° N 20:20:13 66° NE 20:20:13 66° NE
BREEZE-M DEB (TANK) 3.7 20:20:13 10° WNW 20:22:10 37° NNW 20:22:10 37° NNW
Resurs 01 Rocket 3.5 20:26:55 22° N 20:26:55 22° N 20:28:31 10° N
USA 234 3.6 20:24:20 30° NE 20:27:40 60° NNW 20:34:03 10° WSW
Cosmos 1844 Rocket 4.0 20:26:13 10° NW 20:31:14 36° WSW 20:33:33 25° SSW
Cosmos 2360 Rocket 4.1 20:38:18 10° WSW 20:43:03 27° NW 20:47:50 10° N
Cosmos 2278 Rocket 3.4 20:41:03 10° NNW 20:44:20 34° N 20:44:20 34° N
Cosmos 2333 Rocket 2.9 20:44:03 10° SW 20:49:33 50° WNW 20:50:49 43° NNW
SJ 16-02 4.0 21:00:41 10° NNW 21:01:29 15° NNW 21:01:29 15° NNW
Cosmos 2219 Rocket 4.3 21:25:57 10° WSW 21:37:51 - NNE 21:28:08 20° W
